This is the latest recevied weather packets stored in our database for station/object BARLOW-WX. If no packets are shown the sender has not sent any weather packets the latest 10 day(s).
| Time | Temp. | Humidity | Pressure | Rain* | Wind** | Luminosity | Snow |
|---|---|---|---|---|---|---|---|
| 1787413579 | 22.22° C | 90% | 983.8 hPa | 0.25 mm | - | - | - |
| 1787412679 | 20.56° C | 82% | 984 hPa | 0.25 mm | - | - | - |
| 1787411779 | 23.33° C | 82% | 984.2 hPa | 0 mm | - | - | - |
| 1787410880 | 22.78° C | 82% | 984.2 hPa | 0 mm | - | - | - |
| 1787409979 | 22.22° C | 88% | 984.4 hPa | 0 mm | - | - | - |
| 1787409079 | 21.67° C | 89% | 984.4 hPa | 0 mm | - | - | - |
| 1787408179 | 21.67° C | 89% | 984.4 hPa | 0 mm | - | - | - |
| 1787407280 | 21.11° C | 89% | 984.4 hPa | 0 mm | - | - | - |
| 1787406379 | 20.56° C | 87% | 983.8 hPa | 0 mm | - | - | - |
| 1787405479 | 20° C | 87% | 983.8 hPa | 0 mm | - | - | - |
| 1787403680 | 18.89° C | 87% | 983.8 hPa | 0 mm | - | - | - |
| 1787402778 | 18.89° C | 86% | 984.3 hPa | 0 mm | - | - | - |
| 1787401881 | 18.89° C | 87% | 984.4 hPa | 0 mm | - | - | - |
| 1787400981 | 18.89° C | 87% | 984.4 hPa | 0 mm | - | - | - |
| 1787400096 | 18.33° C | 87% | 984.4 hPa | 0 mm | - | - | - |
| 1787399179 | 18.33° C | 86% | 984.6 hPa | 0 mm | - | - | - |
| 1787398281 | 17.78° C | 87% | 984.2 hPa | 0 mm | - | - | - |
| 1787397379 | 17.78° C | 87% | 984.2 hPa | 0 mm | - | - | - |
| 1787396480 | 17.78° C | 87% | 984.2 hPa | 0 mm | - | - | - |
| 1787395579 | 17.78° C | 85% | 984.3 hPa | 0 mm | - | - | - |
| 1787394988 | 17.78° C | 83% | 984.6 hPa | 0 mm | - | - | - |
| 1787393778 | 18.33° C | 83% | 984.6 hPa | 0 mm | - | - | - |
| 1787392881 | 18.33° C | 83% | 984.6 hPa | 0 mm | - | - | - |
| 1787391979 | 18.33° C | 81% | 984.9 hPa | 0.25 mm | - | - | - |
| 1787391080 | 18.33° C | 78% | 984.7 hPa | 0.25 mm | - | - | - |
* Rain latest hour (hover to see other rain measurements)
** Current wind speed in m/s (hover to see current wind gust speed)